Вернуться в каталог

STARLINK-31575

АктивенСвязьVLEO
NORAD 59471·PAYLOAD·🇺🇸 United States

Запущен Apr 10, 2024 с Cape Canaveral Space Force Station

Loading…

Ближайшие Пролёты (ближайшие 24 часа)

TLE

СвежийSource: CelesTrak SupGP

Эпоха: Sep 14, 2026, 20:55 UTC

1 59471C 24068S   26257.87201389  .00056416  00000+0  20436-2 0  2571
2 59471  43.0041  42.6075 0001467 270.9612 184.5260 15.27546919    15

Отслеживайте STARLINK-31575 в реальном времени с AllMySat

Download on the App Store